Location: Coll
(42.4728°N, 0.7714°E)
Time: 12:27:43
(UTC+00:00)

Lacrosse 5 rocket - Pass Details

Date: 23 October 2020
Orbit: 458 x 638 km, 57.0° (Epoch: 30 November)

Event Time Altitude Azimuth Distance (km) Brightness Sun altitude
Exits shadow 04:49:06 - 196° (SSW) 1,885 3.9 -17.4°
Reaches altitude 10° 04:49:50 10° 192° (SSW) 1,606 3.6 -17.2°
Maximum altitude 04:53:04 32° 128° (SE) 829 2.7 -16.6°
Drops below altitude 10° 04:56:26 10° 63° (ENE) 1,671 4.8 -16.0°
Sets 04:58:47 0° 54° (NE) 2,584 5.6 -15.6°
